TimeCST,TemperatureF,Dew PointF,Humidity,Sea Level PressureIn,VisibilityMPH,Wind Direction,Wind SpeedMPH,Gust SpeedMPH,PrecipitationIn,Events,Conditions,WindDirDegrees,DateUTC
1:49 AM,33.8,26.6,75,29.95,10.0,East,9.2,-,N/A,,Overcast,80,2013-03-05 07:49:00
1:51 AM,33.8,26.6,75,29.95,10.0,East,10.4,-,N/A,,Overcast,80,2013-03-05 07:51:00
2:51 AM,33.1,27.0,78,29.95,10.0,East,10.4,-,N/A,,Overcast,80,2013-03-05 08:51:00
3:51 AM,33.1,27.0,78,29.93,10.0,East,12.7,-,N/A,,Overcast,80,2013-03-05 09:51:00
4:51 AM,33.1,27.0,78,29.91,10.0,East,11.5,-,N/A,,Overcast,80,2013-03-05 10:51:00
5:42 AM,33.8,26.6,75,29.89,6.0,East,8.1,-,0.00,Snow,Light Snow,80,2013-03-05 11:42:00
5:51 AM,33.1,27.0,78,29.91,5.0,East,8.1,17.3,0.00,Snow,Light Snow,90,2013-03-05 11:51:00
5:59 AM,32.0,26.6,80,29.88,3.0,East,9.2,-,0.00,Snow,Light Snow,90,2013-03-05 11:59:00
6:46 AM,32.0,28.4,87,29.88,5.0,East,11.5,-,0.02,Snow,Light Snow,80,2013-03-05 12:46:00
6:51 AM,32.0,28.4,87,29.88,5.0,East,8.1,-,N/A,Snow,Light Snow,80,2013-03-05 12:51:00
7:02 AM,32.0,28.4,87,29.87,4.0,East,9.2,-,0.00,Snow,Light Snow,90,2013-03-05 13:02:00
7:43 AM,32.0,28.4,87,29.87,2.5,East,9.2,-,0.01,Snow,Light Snow,80,2013-03-05 13:43:00
7:51 AM,32.0,28.0,85,29.89,2.0,East,11.5,-,0.01,Snow,Light Snow,80,2013-03-05 13:51:00
8:20 AM,32.0,28.4,87,29.88,2.0,ENE,6.9,-,0.01,Snow,Light Snow,60,2013-03-05 14:20:00
8:26 AM,32.0,28.4,87,29.88,1.2,East,6.9,-,0.01,Snow,Light Snow,80,2013-03-05 14:26:00
8:51 AM,30.9,28.9,92,29.90,1.2,ENE,6.9,-,0.04,Snow,Light Snow,60,2013-03-05 14:51:00
9:22 AM,32.0,30.2,93,29.87,1.0,ENE,8.1,-,0.02,Snow,Light Snow,60,2013-03-05 15:22:00
9:31 AM,32.0,30.2,93,29.86,0.8,ENE,9.2,-,0.02,Snow,Light Snow,60,2013-03-05 15:31:00
9:51 AM,32.0,30.0,92,29.87,0.5,ENE,9.2,-,0.04,Fog-Snow,Snow,60,2013-03-05 15:51:00
10:51 AM,32.0,30.0,92,29.84,0.8,ENE,15.0,-,0.04,Snow,Light Snow,70,2013-03-05 16:51:00
11:51 AM,30.9,28.9,92,29.83,0.5,ENE,15.0,20.7,0.03,Fog-Snow,Snow,70,2013-03-05 17:51:00
12:51 PM,30.9,30.0,96,29.82,0.5,ENE,11.5,-,0.07,Fog-Snow,Snow,70,2013-03-05 18:51:00
1:00 PM,30.2,28.4,93,29.80,0.2,ENE,10.4,-,0.00,Fog-Snow,Heavy Snow,70,2013-03-05 19:00:00
1:46 PM,30.2,28.4,93,29.79,0.5,ENE,11.5,-,0.05,Fog-Snow,Snow,60,2013-03-05 19:46:00
1:51 PM,30.9,28.9,92,29.81,0.5,ENE,8.1,-,0.05,Fog-Snow,Snow,60,2013-03-05 19:51:00
2:19 PM,30.2,28.4,93,29.79,0.5,ENE,13.8,-,0.03,Fog-Snow,Snow,60,2013-03-05 20:19:00
2:38 PM,30.2,28.4,93,29.79,0.2,NE,13.8,-,0.06,Fog-Snow,Heavy Snow,50,2013-03-05 20:38:00
2:51 PM,30.0,28.0,92,29.81,0.5,NE,13.8,-,0.08,Fog-Snow,Snow,50,2013-03-05 20:51:00
3:51 PM,30.0,28.0,92,29.83,0.5,NE,13.8,-,0.05,Fog-Snow,Snow,50,2013-03-05 21:51:00
4:51 PM,28.9,28.0,96,29.84,0.5,NE,12.7,-,0.06,Fog-Snow,Snow,40,2013-03-05 22:51:00
5:51 PM,28.9,28.0,96,29.87,0.5,NNE,12.7,-,0.05,Fog-Snow,Snow,30,2013-03-05 23:51:00
6:51 PM,30.0,28.0,92,29.88,0.8,NNE,12.7,-,0.04,Snow,Light Snow,20,2013-03-06 00:51:00
7:11 PM,30.2,28.4,93,29.86,1.0,NNE,15.0,-,0.02,Snow,Light Snow,20,2013-03-06 01:11:00
7:51 PM,30.0,28.9,96,29.89,1.0,NNE,12.7,20.7,0.06,Snow,Light Snow,20,2013-03-06 01:51:00
8:03 PM,30.2,28.4,93,29.87,1.0,NNE,17.3,28.8,0.00,Snow,Light Snow,20,2013-03-06 02:03:00
8:29 PM,30.2,28.4,93,29.89,1.8,NNE,15.0,23.0,0.01,Snow,Light Snow,20,2013-03-06 02:29:00
8:51 PM,30.9,28.9,92,29.91,1.5,North,13.8,-,0.01,Snow,Light Snow,10,2013-03-06 02:51:00
9:23 PM,32.0,28.4,87,29.90,5.0,North,18.4,24.2,0.01,Snow,Light Snow,10,2013-03-06 03:23:00
9:51 PM,32.0,28.0,85,29.94,6.0,North,16.1,-,0.01,Snow,Blowing Snow,350,2013-03-06 03:51:00
10:27 PM,30.2,28.4,93,29.93,2.0,North,13.8,-,0.00,Snow,Light Snow,360,2013-03-06 04:27:00
10:51 PM,30.0,27.0,88,29.96,6.0,North,16.1,-,0.00,Snow,Light Snow,350,2013-03-06 04:51:00
11:51 PM,30.0,26.1,85,29.98,10.0,NNW,15.0,-,0.00,,Overcast,340,2013-03-06 05:51:00